Date,TemperatureHighF,TemperatureAvgF,TemperatureLowF,DewpointHighF,DewpointAvgF,DewpointLowF,HumidityHigh,HumidityAvg,HumidityLow,PressureMaxIn,PressureMinIn,WindSpeedMaxMPH,WindSpeedAvgMPH,GustSpeedMaxMPH,PrecipitationSumIn
2013-2-1,67.0,57.6,47.0,51.0,44.8,39.0,83,63,39,30.16,30.09,6,1,0,0.00
2013-2-2,66.0,59.2,52.0,53.0,47.9,45.0,77,67,49,30.17,30.09,6,2,0,0.00
2013-2-3,68.0,60.4,52.0,54.0,49.3,44.0,82,67,49,30.12,30.01,8,2,0,0.00
2013-2-4,57.0,50.5,45.0,51.0,47.9,42.0,97,91,81,30.08,29.97,9,3,0,0.00
2013-2-5,54.0,51.3,48.0,51.0,48.8,47.0,98,91,83,30.10,29.99,4,1,0,0.00
2013-2-6,58.0,53.8,48.0,50.0,48.0,44.0,91,81,72,30.09,29.99,10,2,0,0.00
2013-2-7,56.0,50.4,42.0,51.0,45.8,40.0,94,85,75,30.11,30.00,9,3,0,0.01
2013-2-8,53.0,48.5,42.0,47.0,41.8,38.0,92,78,67,30.00,29.88,14,6,0,0.29
2013-2-9,55.0,45.5,35.0,44.0,39.0,33.0,93,79,50,30.09,29.91,6,2,0,0.00
2013-2-10,54.0,47.3,39.0,45.0,40.9,35.0,90,79,66,30.09,30.02,6,2,0,0.02
2013-2-11,57.0,47.9,38.0,47.0,42.0,35.0,91,81,60,30.22,30.04,13,4,0,0.00
2013-2-12,56.0,47.4,37.0,48.0,38.8,29.0,83,72,54,30.33,30.22,11,3,0,0.00
2013-2-13,58.0,48.7,38.0,50.0,41.3,33.0,85,76,55,30.25,30.13,7,3,0,0.00
2013-2-14,61.0,51.3,40.0,52.0,45.2,36.0,89,80,61,30.20,30.05,10,3,0,0.00
2013-2-15,73.0,62.0,49.0,46.0,34.7,21.0,82,40,20,30.15,30.09,11,2,0,0.00
2013-2-16,74.0,66.5,53.0,38.0,22.8,17.0,40,20,14,30.12,29.96,11,3,0,0.00
2013-2-17,59.0,52.6,44.0,51.0,42.0,27.0,85,68,47,30.02,29.92,7,2,0,0.00
2013-2-18,58.0,53.0,50.0,48.0,45.7,43.0,84,76,67,30.05,29.97,5,2,0,0.00
2013-2-19,53.0,50.5,46.0,49.0,43.6,39.0,92,77,65,29.98,29.70,16,4,0,0.26
2013-2-20,54.0,49.5,44.0,42.0,37.3,30.0,78,63,46,29.99,29.68,18,8,0,0.01
2013-2-21,58.0,50.3,44.0,47.0,42.2,39.0,88,74,58,30.08,29.97,6,2,0,0.00
2013-2-22,58.0,48.7,38.0,48.0,41.8,34.0,88,78,63,30.18,30.08,9,3,0,0.00
2013-2-23,58.0,49.2,38.0,49.0,42.7,34.0,90,78,54,30.16,29.94,7,2,0,0.00
2013-2-24,69.0,53.2,42.0,47.0,34.2,8.0,93,60,9,30.19,29.97,11,2,0,0.01
2013-2-25,60.0,49.5,37.0,49.0,33.1,21.0,81,54,29,30.19,30.07,13,3,0,0.00
2013-2-26,58.0,49.9,38.0,50.0,41.0,31.0,85,71,58,30.10,29.99,9,3,0,0.00
2013-2-27,67.0,58.0,47.0,42.0,29.3,18.0,72,35,21,30.25,30.10,11,3,0,0.00
2013-2-28,69.0,59.2,45.0,38.0,26.1,17.0,51,30,14,30.29,30.21,15,4,0,0.00